#timestamp,LO_Frequency,Hit,StdDev 
1547974815.3,286046999.5,N
1547974835.1,286047001.7,N
1547974885.9,286046990.5,E
1547974895.8,286046990.6,N
1547974915.7,286046993.1,P
1547974935.5,286046989.1,P
1547974955.3,286046991.2,Y
1547974975.2,286046996.9,P
1547974995.1,286047003.2,N
1547974996.0,286047003.2,N
1547975015.8,286047007.5,N
1547975035.7,286047010.6,N
1547975055.5,286047012.0,N
1547975075.3,286047015.0,N
1547975095.2,286047014.4,N
1547975115.0,286047019.7,N
1547975115.9,286047019.7,N
1547975135.8,286047026.8,Y
1547975155.6,286047014.5,P
1547975175.4,286047013.1,P
1547975195.3,286047018.7,P
1547975215.1,286047015.4,Y
1547975235.9,286046999.0,P
1547975255.7,286046990.1,N
1547975275.5,286046990.6,N
1547975295.4,286046982.8,N
1547975315.2,286046978.8,N
1547975335.0,286046974.0,N
1547975335.9,286046974.0,N
1547975355.8,286046969.4,N
1547975375.6,286046970.2,N
1547975395.5,286046975.0,N
1547975415.3,286046972.5,N
1547975435.1,286046977.0,N
1547975455.9,286046966.3,N
1547975475.7,286046961.6,Y
1547975495.6,286046981.7,P
1547975515.4,286046980.0,P
1547975535.2,286046979.7,P
1547975555.1,286046984.5,Y
1547975556.0,286046984.5,P
1547975575.8,286047004.1,N
1547975595.7,286047005.8,N
1547975615.5,286047000.7,N
1547975635.3,286047002.6,N
1547975655.2,286047001.9,N
1547975675.0,286047005.0,N
1547975675.9,286047005.0,N
1547975695.8,286047009.5,N
1547975715.6,286047009.3,N
1547975735.4,286047017.9,N
1547975755.3,286047027.6,N
1547975775.1,286047021.6,N
1547975795.9,286047015.3,N
1547975815.7,286047011.4,N
1547975835.5,286047003.3,N
1547975855.4,286047001.5,N
1547975875.2,286046998.7,N
1547975895.0,286046997.6,N
1547975895.9,286046997.6,N
1547975915.8,286046998.9,N
1547975935.6,286047005.3,N
1547975955.5,286047015.2,N
1547975975.3,286047031.6,Y
1547975995.1,286047032.5,P
1547976015.9,286047039.9,N
1547976035.7,286047043.5,N
1547976055.6,286047035.6,N
1547976075.4,286047029.4,N
1547976095.2,286047026.6,N
1547976115.1,286047018.6,N
1547976116.0,286047018.6,N
1547976135.8,286047011.2,N
1547976155.6,286047017.7,N
1547976175.5,286047027.9,N
1547976195.3,286047034.6,Y
1547976215.2,286047011.5,P
1547976235.0,286047014.3,N
1547976235.9,286047014.3,N
1547976255.7,286047005.9,N
1547976275.6,286046995.8,N
1547976295.4,286046992.3,N
1547976315.3,286046979.1,N
1547976335.1,286046980.3,N
1547976336.0,286046980.3,N
1547976355.8,286046980.9,N
1547976375.7,286046983.3,N
1547976395.5,286046976.4,N
1547976415.4,286046983.9,N
1547976435.2,286046992.8,N
1547976455.0,286046981.6,N
1547976455.9,286046981.6,N
1547976475.8,286046972.9,N
1547976495.6,286046968.4,N
1547976515.4,286046966.5,N
1547976535.3,286046964.3,N
1547976555.1,286046969.8,N
1547976575.9,286046974.8,N
1547976595.7,286046982.2,N
1547976615.5,286046992.7,N
1547976635.4,286046991.7,N
1547976655.2,286046985.6,N
1547976675.0,286046974.3,N
1547976676.0,286046974.3,N
1547976695.8,286046968.8,N
1547976715.6,286046966.5,N
1547976735.5,286046975.4,N
1547976755.3,286046971.4,N
1547976775.1,286046964.9,Y
1547976795.9,286046983.0,P
1547976815.7,286046987.8,P
1547976835.6,286046988.0,P
1547976855.4,286046992.6,N
1547976875.2,286046983.2,Y
1547976895.1,286046993.5,P
1547976896.0,286046993.5,N
1547976915.8,286047001.0,N
1547976935.7,286046995.2,N
1547976955.5,286046993.8,N
1547976975.3,286046991.7,N
1547976995.2,286046999.3,N
1547977015.0,286047007.9,N
1547977015.9,286047007.9,N
1547977035.8,286047001.8,N
1547977055.6,286047002.5,N
1547977075.4,286047000.4,N
1547977095.3,286046998.0,N
1547977115.1,286046991.7,N
1547977135.8,286046989.0,N
1547977155.7,286046988.8,N
1547977175.5,286046990.4,N
1547977195.4,286046994.1,N
1547977215.2,286047008.6,N
1547977235.0,286047014.6,N
1547977235.9,286047014.6,N
1547977255.8,286047019.8,N
1547977275.6,286047016.2,N
1547977295.5,286047017.2,N
1547977315.3,286047019.2,N
1547977335.1,286047023.9,N
1547977355.9,286047027.8,N
1547977375.7,286047024.4,N
1547977395.5,286047012.6,N
1547977415.4,286047003.1,N
1547977435.2,286047001.2,N
1547977455.1,286046994.9,N
1547977456.0,286046994.9,N
1547977475.8,286046994.1,N
1547977495.6,286046991.0,N
1547977515.5,286046996.3,N
1547977535.3,286047000.4,N
1547977555.2,286047003.9,N
1547977575.9,286047005.2,N
1547977595.7,286047003.4,N
1547977615.6,286046999.6,N
1547977635.4,286047005.7,N
1547977655.2,286047001.8,N
1547977675.1,286047001.9,N
1547977676.0,286047001.9,N
1547977695.8,286047000.8,N
1547977715.7,286046993.3,N
1547977735.5,286047003.5,N
1547977755.3,286047002.3,N
1547977775.2,286046990.8,N
1547977795.0,286046988.1,N
1547977795.9,286046988.1,N
1547977815.8,286046993.0,N
1547977835.6,286046993.0,N
1547977855.4,286046997.6,N
1547977875.3,286047002.1,N
1547977895.1,286046990.7,N
1547977915.9,286046984.3,N
1547977935.7,286046982.8,N
1547977955.5,286046983.9,N
1547977975.4,286046993.5,N
1547977995.2,286047002.0,N
1547978015.0,286047013.1,N
1547978016.0,286047013.1,N
1547978035.8,286047021.1,N
1547978055.6,286047040.6,Y
1547978075.5,286047056.3,P
1547978095.3,286047062.7,N
1547978115.1,286047073.7,N
1547978135.9,286047074.9,N
1547978155.7,286047084.8,Y
1547978175.6,286047034.7,P
1547978195.4,286047031.9,P
1547978215.2,286047041.3,P
1547978235.1,286047036.1,Y
1547978236.0,286047036.1,P
1547978255.8,286046981.2,P
1547978275.7,286046963.2,N
1547978295.5,286046949.6,N
1547978315.3,286046947.6,N
1547978335.2,286046942.1,N
1547978355.0,286046937.2,N
1547978355.9,286046937.2,N
1547978375.8,286046946.2,N
1547978395.6,286046947.6,N
